Location: Franzen
(48.6167°N, 15.3833°E)
Time: 18:20:33
(UTC+00:00)

A-11 Canister half - Pass Details

Date: 05 August 2021
Orbit: 1515 x 1685 km, 47.2° (Epoch: 19 September)

Event Time Altitude Azimuth Distance (km) Brightness Sun altitude
Rises 19:27:56 0° 284° (WNW) 4,860 13.0 -8.9°
Reaches altitude 10° 19:31:03 10° 282° (WNW) 3,892 12.2 -9.3°
Maximum altitude 19:40:56 67° 203° (SSW) 1,790 9.3 -10.6°
Enters shadow 19:50:02 14° 124° (SE) 3,663 10.3 -11.7°
Drops below altitude 10° 19:50:58 10° 123° (ESE) 3,946 - -11.8°
Sets 19:54:09 0° 121° (ESE) 4,930 - -12.2°
